Location: Hilderbrand
(37.5756°N, 89.8540°W)
Time: 11:31:51
(UTC+00:00)

Cosmos 1300 Rocket - Pass Details

Date: 15 November 2025
Orbit: 594 x 620 km, 82.5° (Epoch: 05 December)

Event Time Altitude Azimuth Distance (km) Brightness Sun altitude
Rises 23:10:10 0° 187° (S) 2,879 7.4 -4.9°
Reaches altitude 10° 23:12:23 10° 188° (S) 1,977 6.5 -5.3°
Maximum altitude 23:16:46 84° 275° (W) 625 3.7 -6.1°
Drops below altitude 10° 23:21:10 10° 6° (N) 1,981 5.9 -6.9°
Sets 23:23:23 0° 7° (N) 2,886 6.7 -7.4°
